| time (UTC) | temp C | wind direction | speed KPH | gust KPH | rain 1hr cm | rain 24hr cm | rain mn cm | humidity % | barometer mb |
| 20260504081541 | 10 | 264 | 11.3 | 17.7 | 0.00 | 0.00 | 0.00 | 61 | 1001.3 |
| 20260504044550 | 12 | 271 | 6.4 | 9.7 | 0.00 | 0.00 | 0.00 | 53 | 1004.4 |
| 20260504043050 | 12 | 273 | 6.4 | 8.0 | 0.00 | 0.00 | 0.00 | 52 | 1004.8 |
| 20260504041549 | 12 | 268 | 8.0 | 11.3 | 0.00 | 0.00 | 0.00 | 52 | 1005.1 |
| 20260504040046 | 13 | 273 | 8.0 | 12.9 | 0.00 | 0.00 | 0.00 | 50 | 1005.3 |
| 20260504034554 | 13 | 290 | 8.0 | 12.9 | 0.00 | 0.00 | 0.00 | 50 | 1005.4 |
| 20260504033054 | 13 | 269 | 4.8 | 6.4 | 0.00 | 0.00 | 0.00 | 50 | 1005.5 |
| 20260504031559 | 13 | 276 | 6.4 | 11.3 | 0.00 | 0.00 | 0.00 | 50 | 1005.8 |
| 20260504030049 | 14 | 290 | 8.0 | 11.3 | 0.00 | 0.00 | 0.00 | 48 | 1005.9 |
| 20260504024549 | 15 | 282 | 8.0 | 11.3 | 0.00 | 0.00 | 0.00 | 46 | 1006.1 |
| 20260504023048 | 15 | 277 | 6.4 | 11.3 | 0.00 | 0.00 | 0.00 | 46 | 1006.1 |
| 20260504021548 | 15 | 280 | 8.0 | 9.7 | 0.00 | 0.00 | 0.00 | 45 | 1006.2 |
| 20260504020050 | 16 | 286 | 6.4 | 11.3 | 0.00 | 0.00 | 0.00 | 44 | 1006.2 |
| 20260504014557 | 16 | 271 | 8.0 | 11.3 | 0.00 | 0.00 | 0.00 | 43 | 1006.2 |
| 20260504013050 | 17 | 280 | 4.8 | 14.5 | 0.00 | 0.00 | 0.00 | 41 | 1006.2 |
| 20260504011552 | 18 | 271 | 6.4 | 9.7 | 0.00 | 0.00 | 0.00 | 39 | 1006.2 |
| 20260504010047 | 19 | 265 | 8.0 | 12.9 | 0.00 | 0.00 | 0.00 | 37 | 1006.3 |
| 20260504004546 | 20 | 271 | 8.0 | 16.1 | 0.00 | 0.00 | 0.00 | 36 | 1006.6 |
| 20260504003045 | 20 | 274 | 16.1 | 25.7 | 0.00 | 0.00 | 0.00 | 33 | 1006.6 |
| 20260504001543 | 21 | 264 | 16.1 | 30.6 | 0.00 | 0.00 | 0.00 | 32 | 1006.7 |
| 20260504000116 | 21 | 295 | 20.9 | 30.6 | 0.00 | 0.00 | 0.00 | 31 | 1006.8 |
| 20260503234549 | 21 | 276 | 14.5 | 33.8 | 0.00 | 0.00 | 0.00 | 33 | 1006.9 |
| 20260503233046 | 21 | 283 | 25.7 | 33.8 | 0.00 | 0.00 | 0.00 | 32 | 1007.1 |
| 20260503231546 | 21 | 299 | 17.7 | 29.0 | 0.00 | 0.00 | 0.00 | 30 | 1007.3 |
| 20260503230054 | 21 | 300 | 17.7 | 30.6 | 0.00 | 0.00 | 0.00 | 31 | 1007.2 |
| 20260503224545 | 21 | 303 | 17.7 | 37.0 | 0.00 | 0.00 | 0.00 | 31 | 1007.5 |
| 20260503223048 | 21 | 310 | 20.9 | 33.8 | 0.00 | 0.00 | 0.00 | 29 | 1007.5 |
| 20260503221545 | 21 | 298 | 19.3 | 32.2 | 0.00 | 0.00 | 0.00 | 28 | 1007.7 |
| 20260503220049 | 21 | 296 | 22.5 | 37.0 | 0.00 | 0.00 | 0.00 | 30 | 1007.8 |
| 20260503214548 | 21 | 300 | 24.1 | 40.2 | 0.00 | 0.00 | 0.00 | 31 | 1007.9 |
| 20260503213039 | 21 | 302 | 12.9 | 33.8 | 0.00 | 0.00 | 0.00 | 33 | 1008.1 |
| 20260503211548 | 21 | 312 | 22.5 | 41.8 | 0.00 | 0.00 | 0.00 | 33 | 1008.2 |
| 20260503210047 | 21 | 299 | 8.0 | 32.2 | 0.00 | 0.00 | 0.00 | 33 | 1008.5 |
| 20260503204546 | 21 | 312 | 19.3 | 33.8 | 0.00 | 0.00 | 0.00 | 34 | 1008.7 |
| 20260503203045 | 20 | 295 | 17.7 | 29.0 | 0.00 | 0.00 | 0.00 | 34 | 1009.0 |
| 20260503201547 | 20 | 322 | 19.3 | 32.2 | 0.00 | 0.00 | 0.00 | 33 | 1009.2 |
| 20260503200043 | 21 | 302 | 24.1 | 37.0 | 0.00 | 0.00 | 0.00 | 35 | 1009.3 |
| 20260503194539 | 20 | 321 | 19.3 | 38.6 | 0.00 | 0.00 | 0.00 | 36 | 1009.4 |
| 20260503193046 | 20 | 1 | 20.9 | 41.8 | 0.00 | 0.00 | 0.00 | 36 | 1009.6 |
| 20260503191538 | 20 | 340 | 19.3 | 35.4 | 0.00 | 0.00 | 0.00 | 36 | 1009.6 |
| 20260503190048 | 20 | 331 | 17.7 | 32.2 | 0.00 | 0.00 | 0.00 | 34 | 1009.9 |
| 20260503184600 | 19 | 304 | 22.5 | 41.8 | 0.00 | 0.00 | 0.00 | 37 | 1010.2 |
| 20260503183047 | 19 | 317 | 14.5 | 37.0 | 0.00 | 0.00 | 0.00 | 39 | 1010.2 |
| 20260503181551 | 19 | 315 | 20.9 | 29.0 | 0.00 | 0.00 | 0.00 | 36 | 1010.4 |
| 20260503180049 | 18 | 318 | 22.5 | 38.6 | 0.00 | 0.00 | 0.00 | 40 | 1010.6 |
| 20260503174551 | 18 | 309 | 22.5 | 38.6 | 0.00 | 0.00 | 0.00 | 41 | 1010.8 |
| 20260503173044 | 18 | 323 | 24.1 | 46.7 | 0.00 | 0.00 | 0.00 | 40 | 1010.8 |
| 20260503171603 | 18 | 319 | 20.9 | 37.0 | 0.00 | 0.00 | 0.00 | 43 | 1010.9 |